Colchester

*Note: All times are displayed in the local standard time of the station location.
**Rain - Equipment is designed to accurately record liquid precipitation; under conditions when precipitation is not in liquid form, the data displayed may not properly reflect rainfall values.

Date Max Temp
(°C)
Min Temp
(°C)
Avg Temp
(°C)
Rain (mm) Avg RH (%)
Sat, Dec 16, 2017 1.2 -6.3 -1.5 0.0 88.6
Fri, Dec 15, 2017 -2.0 -15.6 -4.5 0.0 79.5
Thu, Dec 14, 2017 -5.2 -19.2 -10.4 0.0 82.2
Wed, Dec 13, 2017 -3.8 -10.2 -6.6 0.0 87.1
Tue, Dec 12, 2017 -1.0 -10.3 -6.3 0.0 72.9
Mon, Dec 11, 2017 0.8 -8.1 -2.7 0.0 90.0
Sun, Dec 10, 2017 -1.1 -4.8 -2.8 0.0 82.2
DateTime Avg Temp (°C) Rain (mm) RH (%)
Sun, Dec 17, 2017 15:00 1.0 0.0 96.0
Sun, Dec 17, 2017 14:00 1.1 0.0 94.5
Sun, Dec 17, 2017 13:00 1.4 0.0 94.5
Sun, Dec 17, 2017 12:00 1.1 0.0 97.0
Sun, Dec 17, 2017 11:00 -0.7 0.0 97.3
Sun, Dec 17, 2017 10:00 -1.5 0.0 98.0
Sun, Dec 17, 2017 09:00 -2.2 0.0 98.5
Sun, Dec 17, 2017 08:00 -2.9 0.0 98.3
Sun, Dec 17, 2017 07:00 -3.6 0.0 96.3
Sun, Dec 17, 2017 06:00 -4.8 0.0 94.8
Sun, Dec 17, 2017 05:00 -6.3 0.0 93.0
Sun, Dec 17, 2017 04:00 -6.7 0.0 92.8
Sun, Dec 17, 2017 03:00 -6.5 0.0 90.8
Sun, Dec 17, 2017 02:00 -6.3 0.0 92.8
Sun, Dec 17, 2017 01:00 -6.4 0.0 96.5
Sun, Dec 17, 2017 00:00 -6.1 0.0 97.5
Sat, Dec 16, 2017 23:00 -5.3 0.0 97.0
Sat, Dec 16, 2017 22:00 -4.3 0.0 93.3
Sat, Dec 16, 2017 21:00 -3.5 0.0 90.5
Sat, Dec 16, 2017 20:00 -3.2 0.0 90.0
Sat, Dec 16, 2017 19:00 -3.0 0.0 90.3
Sat, Dec 16, 2017 18:00 -2.8 0.0 91.0
Sat, Dec 16, 2017 17:00 -2.0 0.0 91.3
Sat, Dec 16, 2017 16:00 -1.0 0.0 86.5
Sat, Dec 16, 2017 15:00 -1.3 0.0 90.0
Sat, Dec 16, 2017 14:00 -0.1 0.0 91.8
Sat, Dec 16, 2017 13:00 1.0 0.0 88.5
Sat, Dec 16, 2017 12:00 0.7 0.0 89.5
Sat, Dec 16, 2017 11:00 0.5 0.0 88.0
Sat, Dec 16, 2017 10:00 0.5 0.0 84.5
Sat, Dec 16, 2017 09:00 0.3 0.0 83.8
Sat, Dec 16, 2017 08:00 0.1 0.0 84.8
Sat, Dec 16, 2017 07:00 -0.1 0.0 86.5
Sat, Dec 16, 2017 06:00 0.0 0.0 82.5
Sat, Dec 16, 2017 05:00 -0.7 0.0 86.0
Sat, Dec 16, 2017 04:00 -1.5 0.0 91.5
Sat, Dec 16, 2017 03:00 -1.4 0.0 88.5
Sat, Dec 16, 2017 02:00 -1.2 0.0 83.0
Sat, Dec 16, 2017 01:00 -1.3 0.0 81.0
Sat, Dec 16, 2017 00:00 -2.2 0.0 85.0
Fri, Dec 15, 2017 23:00 -2.5 0.0 81.0
Fri, Dec 15, 2017 22:00 -2.6 0.0 76.3
Fri, Dec 15, 2017 21:00 -2.9 0.0 76.3
Fri, Dec 15, 2017 20:00 -3.1 0.0 74.5
Fri, Dec 15, 2017 19:00 -3.1 0.0 75.8
Fri, Dec 15, 2017 18:00 -3.1 0.0 76.5
Fri, Dec 15, 2017 17:00 -3.2 0.0 80.5
Fri, Dec 15, 2017 16:00 -3.2 0.0 82.8


asterix Register now to access more data! asterix